Simultaneous Nadir Overpasses (SNOs) Predictions

Prediction of SNOs between METOP-B and NOAA-19 Satellite Orbit:

Table of predicted SNOs for the next 14.0 days since TLE Epoch: 1/31/2014
Index Date (METOP-B) Time (METOP-B) Lat,Lon (METOP-B) SZA (METOP-B ) Date (NOAA-19) Time (NOAA-19) Lat,Lon (NOAA-19) SZA (NOAA-19 ) Distance(km) Time Diff (sec)
1 02/01/2014 02:55:07 73.96, 131.19 91.18 02/01/2014 02:53:55 73.94, 130.07 91.22 34.50 72
2 02/01/2014 03:45:53 -73.71, -62.08 89.06 02/01/2014 03:44:46 -73.70, -62.08 89.06 1.12 67
3 02/01/2014 04:36:34 73.69, 105.20 90.92 02/01/2014 04:35:54 73.69, 105.16 90.93 1.43 40
4 02/01/2014 05:27:15 -73.69, -87.47 89.10 02/01/2014 05:26:50 -73.70, -87.59 89.08 3.77 25
5 02/01/2014 06:17:56 73.67, 79.81 90.88 02/01/2014 06:17:57 73.64, 79.76 90.86 3.08 1
6 02/01/2014 07:08:38 -73.61,-112.98 89.18 02/01/2014 07:08:53 -73.65,-112.98 89.15 3.64 15
7 02/01/2014 07:59:19 73.59, 54.30 90.79 02/01/2014 08:00:00 73.59, 54.37 90.78 2.00 41
8 02/01/2014 08:50:00 -73.59,-138.37 89.22 02/01/2014 08:50:56 -73.60,-138.38 89.23 0.58 56
9 02/01/2014 09:40:48 73.22, 28.12 90.44 02/01/2014 09:41:58 73.30, 29.55 90.44 46.42 70
10 02/11/2014 06:10:38 74.37, 83.30 88.45 02/11/2014 06:09:32 74.37, 80.19 88.59 93.42 66
11 02/11/2014 07:01:32 -73.73,-110.95 92.15 02/11/2014 07:00:17 -73.75,-110.97 92.11 2.39 75
12 02/11/2014 07:52:13 73.70, 56.33 87.83 02/11/2014 07:51:22 73.69, 56.41 87.81 3.18 51
13 02/11/2014 08:42:54 -73.71,-136.34 92.19 02/11/2014 08:42:20 -73.70,-136.37 92.19 1.15 34
14 02/11/2014 09:33:34 73.68, 30.94 87.78 02/11/2014 09:33:25 73.69, 30.89 87.79 1.57 9
15 02/11/2014 10:24:16 -73.63,-161.85 92.28 02/11/2014 10:24:22 -73.65,-161.77 92.26 3.19 6
16 02/11/2014 11:14:56 73.66, 5.54 87.74 02/11/2014 11:15:28 73.64, 5.49 87.72 2.84 32
17 02/11/2014 12:05:38 -73.61, 172.76 92.32 02/11/2014 12:06:25 -73.60, 172.83 92.34 2.53 47
18 02/11/2014 12:56:19 73.59, -19.97 87.65 02/11/2014 12:57:31 73.59, -19.91 87.64 1.80 72
19 02/11/2014 13:47:11 -73.04, 146.14 92.85 02/11/2014 13:48:18 -73.06, 148.57 92.95 78.69 67




NCC Satellite Simultaneous Nadir Overpasses (SNOs) Prediction Service
